GEFSMA_con_probscp_198.txt.gz
Probability
3 3 1 0 0 0 0 0 0 0 0 0 0 0 0 0 0 0 0 0 2 6 11 12 11 10 10 10 10 8 5 3 2 2 2 4 5 7 7 5 4 5 6
4 3 2 0 0 0 0 0 0 0 0 0 0 0 0 0 0 0 0 0 2 5 8 9 8 7 7 7 8 8 7 6 4 3 4 5 6 7 7 5 4 5 6
3 2 1 0 0 0 0 1 1 1 1 1 0 0 0 0 0 0 0 0 1 3 4 5 4 5 5 4 4 6 8 9 8 7 8 8 7 7 6 5 5 6 7
1 1 0 0 0 0 0 1 2 2 2 1 0 0 0 0 0 0 0 0 0 1 2 3 4 5 5 3 3 4 8 12 13 12 11 9 8 8 6 5 5 5 6
0 0 0 0 0 0 0 1 2 2 1 1 0 0 0 0 0 0 0 0 0 0 1 2 4 5 6 5 4 4 7 12 13 12 11 10 10 10 8 5 4 3 3
1 1 0 0 0 0 0 1 1 1 0 0 0 0 0 0 0 0 0 0 0 0 0 2 4 5 5 4 4 4 6 8 8 8 9 10 11 11 11 8 5 3 3
1 1 1 0 0 0 0 0 0 0 0 0 0 0 0 0 0 0 0 0 0 0 0 2 3 3 2 2 2 2 3 3 3 4 6 8 9 10 11 11 7 4 4
2 2 2 2 1 1 1 0 0 0 0 0 0 0 0 0 0 0 0 0 0 0 0 1 1 1 1 0 1 1 0 1 1 3 4 5 6 8 10 10 8 6 5
3 3 3 4 3 3 3 1 1 1 0 0 0 0 0 0 0 0 0 0 0 0 0 0 0 0 0 0 0 0 0 1 1 3 3 3 5 6 7 8 8 7 8
4 5 6 6 6 6 6 4 3 2 1 0 0 0 0 0 0 0 0 0 0 0 0 0 0 0 0 0 0 0 0 1 2 3 3 3 3 4 5 5 6 8 8
6 7 9 9 9 9 8 7 5 3 1 0 0 0 0 0 0 0 0 0 0 0 0 0 0 0 0 0 0 0 0 1 1 2 2 2 3 3 4 4 4 5 5
5 6 9 10 11 11 10 8 5 3 2 0 0 0 0 0 0 0 0 0 0 0 0 0 0 0 0 0 0 0 0 0 0 0 0 1 2 3 4 4 3 3 2
3 4 6 8 9 9 9 7 6 4 1 0 0 0 0 0 0 0 0 0 0 0 0 0 0 0 0 0 1 0 0 0 0 0 0 0 1 2 2 2 2 1 1
1 2 3 4 6 7 7 7 6 5 2 0 0 0 0 0 0 0 0 0 0 0 0 0 0 0 0 0 0 0 0 0 0 0 0 0 0 1 1 1 1 0 0
2 1 1 2 4 6 6 6 6 5 3 1 0 1 1 1 1 0 0 0 0 0 0 0 0 0 0 0 0 0 0 0 0 0 0 0 0 0 0 0 0 0 0
3 3 2 2 3 5 6 6 6 5 4 2 2 2 2 2 1 0 0 0 0 0 0 0 0 0 0 0 0 0 0 0 0 0 0 0 0 0 0 0 0 0 0
3 3 2 2 3 4 4 4 5 4 3 3 3 3 2 1 1 0 0 0 0 0 0 0 0 0 0 0 0 0 0 0 0 0 0 0 0 0 0 0 0 0 0
3 2 2 2 3 2 1 2 2 3 3 2 2 2 1 0 0 0 0 0 0 0 0 0 0 0 0 0 0 0 0 0 0 0 0 0 0 0 0 0 0 0 0
3 3 2 2 2 1 0 1 2 2 1 1 1 1 0 0 0 0 0 0 0 0 0 0 0 0 0 0 0 0 0 0 0 0 0 0 0 0 0 0 0 0 0
2 2 2 1 1 0 0 1 2 1 0 0 0 0 0 0 0 0 0 0 0 0 0 0 0 0 0 0 0 0 0 0 0 0 0 0 0 0 0 0 0 0 0
1 1 1 0 0 0 0 1 1 0 0 0 0 0 0 0 0 0 0 0 0 0 0 0 0 0 0 0 0 0 0 0 0 0 0 0 0 0 0 0 0 0 0
0 0 0 0 0 0 0 0 0 0 0 0 0 0 0 0 0 0 0 0 0 0 0 0 0 0 0 0 0 0 0 0 0 0 0 0 0 0 0 0 0 0 0
0 0 0 0 0 0 0 0 0 0 0 0 0 0 0 0 0 0 0 0 0 0 0 0 0 0 0 0 0 0 0 0 0 0 0 0 0 0 0 0 0 0 0
0 0 0 0 0 0 0 0 0 0 0 0 0 0 0 0 0 0 0 0 0 0 0 0 0 0 0 0 0 0 0 0 0 0 0 0 0 0 0 0 0 0 0
0 0 0 0 0 0 0 0 0 0 0 0 0 0 0 0 0 0 0 0 0 0 0 0 0 0 0 0 0 0 0 0 0 0 0 0 0 0 0 0 0 0 0
0 0 0 0 0 0 0 0 0 0 0 0 0 0 0 0 0 0 0 0 0 0 0 0 0 0 0 0 0 0 0 0 0 0 0 0 0 0 0 0 0 0 0

GEFSMA_con_probscp_204.txt.gz
Probability
13 15 17 16 11 8 6 4 3 1 0 0 0 0 0 0 0 0 0 0 1 2 2 1 2 4 6 7 7 7 8 8 8 10 10 7 4 4 4 4 4 6 8
11 13 15 12 8 6 4 3 2 1 0 0 0 0 0 0 0 0 0 0 1 2 2 2 3 4 5 6 6 7 10 10 9 10 11 9 5 4 4 4 5 6 7
9 10 11 9 6 5 3 1 1 1 0 0 0 0 0 0 0 0 0 0 0 1 2 3 3 3 4 4 6 7 9 10 10 10 12 12 9 7 6 5 5 6 6
10 9 9 9 7 5 4 3 2 2 1 0 0 0 0 0 0 0 1 1 0 0 1 2 3 3 3 3 5 6 6 7 8 10 12 13 12 10 7 6 5 5 5
10 8 7 8 7 5 5 6 7 5 2 1 0 0 0 0 0 1 2 1 0 0 1 2 3 3 3 3 3 4 4 4 6 9 11 11 11 9 6 5 5 4 5
9 7 6 6 5 4 5 7 8 6 3 2 1 0 0 0 1 2 2 1 0 0 0 2 4 3 1 1 2 2 2 3 5 7 8 8 8 7 5 4 5 5 5
7 6 5 6 6 5 4 6 7 7 5 4 2 1 0 0 1 1 1 0 0 0 0 1 3 2 1 1 1 0 1 1 3 4 5 5 7 6 5 4 4 5 6
8 7 7 8 9 7 5 5 7 7 6 5 4 2 0 0 0 0 0 0 0 1 1 1 1 2 2 2 1 0 0 0 1 2 3 3 4 5 5 4 3 4 6
9 9 9 11 11 10 8 8 8 7 6 7 7 5 2 1 1 0 0 0 0 1 2 1 1 1 2 3 2 0 0 0 0 1 2 2 2 3 4 3 3 4 5
11 10 11 13 14 13 12 10 9 8 8 8 9 8 5 3 2 1 0 0 0 1 1 1 0 1 3 5 3 1 0 0 0 0 1 1 0 1 2 2 3 3 3
13 10 10 13 15 14 13 11 10 9 9 8 9 9 8 6 4 2 0 1 1 1 0 0 1 2 5 7 5 2 0 0 0 0 0 0 0 0 1 1 2 2 2
13 10 8 10 11 12 12 11 9 8 8 8 9 9 9 8 6 3 1 2 2 2 1 1 2 4 6 8 6 2 0 0 0 0 0 0 0 0 1 2 3 3 3
11 10 9 9 8 7 8 9 8 7 7 8 9 10 10 9 6 4 2 2 3 2 1 1 3 4 6 9 7 2 0 0 0 0 0 0 0 0 1 3 4 4 4
11 10 10 10 8 6 6 7 7 7 7 8 8 9 9 8 6 5 4 3 3 2 1 2 3 5 6 8 5 1 0 0 0 0 0 0 0 0 0 2 4 4 3
10 10 10 10 9 7 6 6 6 7 7 7 7 7 7 7 7 7 6 4 3 3 2 3 5 6 7 6 3 0 0 0 0 0 0 0 0 0 0 0 2 2 2
9 9 9 9 9 8 7 7 7 8 8 7 6 6 6 6 7 8 7 5 4 4 3 4 5 6 6 3 1 0 0 0 0 0 0 0 0 0 0 0 0 0 0
9 8 7 8 8 8 7 7 8 8 8 7 6 5 5 5 7 8 7 5 4 4 4 3 3 3 3 2 1 0 0 0 0 0 0 0 0 0 0 0 0 0 0
10 8 7 7 7 7 6 7 6 6 6 6 6 5 4 4 6 7 7 5 4 4 4 2 1 1 2 1 1 1 1 1 1 0 0 0 0 0 0 0 0 0 0
9 8 7 6 6 5 5 4 4 4 5 6 7 6 5 4 6 6 6 6 5 4 3 1 0 1 2 1 1 1 2 3 1 0 0 0 0 0 0 0 0 0 0
7 7 6 5 4 4 3 3 3 3 4 4 5 6 5 4 5 4 4 5 5 3 2 1 0 1 1 1 1 0 1 2 1 0 0 1 1 1 1 0 0 0 0
6 5 4 4 3 3 2 1 1 2 2 2 2 4 4 3 3 3 3 3 3 3 1 0 0 0 1 2 1 0 0 1 1 1 1 2 2 2 2 1 0 0 0
5 5 4 4 3 2 1 0 0 0 1 1 2 3 3 3 2 1 1 1 1 1 1 0 0 0 1 2 1 0 0 0 0 1 1 1 2 2 2 2 0 0 0
4 5 5 5 3 1 0 0 0 1 2 3 4 4 4 4 3 2 1 1 1 1 1 1 0 0 1 1 1 1 1 0 1 1 1 0 0 1 2 1 0 0 0
5 5 6 6 4 1 0 0 0 1 2 4 4 5 5 5 3 2 2 2 1 0 0 0 0 0 0 1 2 2 1 1 1 1 1 0 0 0 1 1 0 0 0
7 6 6 6 4 1 0 0 0 1 2 4 5 5 5 4 2 1 1 1 1 0 0 0 0 0 0 1 1 1 1 0 1 1 1 0 0 0 0 0 0 0 0
7 7 6 6 5 2 0 0 0 0 1 4 6 5 3 2 1 0 0 0 0 0 0 0 0 0 0 0 0 0 0 0 0 0 1 0 0 0 0 0 1 1 1

GEFSMA_con_probscp_210.txt.gz
Probability
34 32 29 26 23 19 14 11 10 6 4 3 2 1 1 1 1 1 0 0 0 0 0 1 1 1 1 3 6 6 4 4 5 5 4 4 5 4 2 1 2 3 4
35 32 29 26 25 22 17 14 11 8 4 3 3 2 2 1 0 0 0 0 0 0 1 1 1 0 0 2 5 5 5 5 6 7 7 6 5 4 3 2 3 3 3
36 33 29 27 25 22 19 16 14 10 6 3 3 3 2 1 1 1 1 1 1 1 2 2 1 1 0 2 4 6 8 9 10 11 12 10 8 5 4 4 4 5 4
36 34 29 25 23 20 16 15 15 12 7 4 3 2 1 1 2 2 2 3 2 2 2 3 3 1 1 2 5 7 10 12 13 14 15 14 12 9 7 6 6 6 4
32 32 27 22 21 18 14 13 13 12 9 5 3 1 2 2 3 3 4 4 4 3 1 3 4 2 1 2 3 5 7 9 11 12 13 13 12 11 9 7 6 5 4
30 29 26 22 20 17 15 13 12 12 10 7 3 1 3 3 4 5 6 6 6 4 2 3 4 3 2 2 2 2 3 4 7 8 9 9 9 9 7 6 5 3 2
31 28 25 22 19 17 17 16 14 12 11 8 4 2 2 3 4 5 6 7 6 4 3 3 4 5 5 3 2 2 1 2 4 5 5 5 6 6 4 3 2 1 1
34 29 25 23 20 18 19 19 17 14 11 10 8 5 3 3 3 3 4 5 5 4 4 3 4 6 6 4 2 1 2 3 4 4 3 3 3 3 2 1 1 0 0
33 30 26 24 23 20 20 20 18 14 12 12 10 7 4 3 2 2 3 4 5 4 4 3 3 5 5 4 2 2 3 4 4 2 1 1 1 1 0 0 0 0 0
29 28 26 24 23 22 20 18 15 15 14 12 10 8 5 4 3 2 2 3 4 4 3 2 3 4 4 4 3 3 5 5 2 0 0 0 1 1 0 0 0 0 0
25 25 24 22 21 20 18 15 14 14 13 10 9 8 6 5 4 2 1 1 2 2 2 2 3 3 3 4 3 4 5 4 2 1 0 0 0 0 0 0 0 0 0
24 24 22 21 19 18 15 13 12 11 10 8 6 6 5 5 3 2 1 0 1 1 2 4 5 4 3 3 3 3 4 3 2 1 0 0 0 0 0 1 0 0 0
22 22 20 19 17 14 11 10 9 9 8 7 6 5 5 4 3 1 0 0 0 1 2 4 5 5 4 3 3 2 1 1 1 1 0 0 0 0 0 0 0 0 0
18 18 17 15 12 9 8 7 7 7 8 8 8 7 6 4 3 2 1 1 0 1 1 2 5 6 6 5 3 1 0 0 0 0 0 0 0 0 0 0 0 0 0
15 15 14 12 9 8 7 7 7 7 7 7 7 7 6 4 3 3 3 2 2 1 0 1 4 5 7 6 3 1 1 1 0 0 0 0 0 0 0 0 0 0 0
13 13 12 11 9 8 8 8 7 6 6 7 7 7 6 4 4 4 3 3 3 2 2 2 3 4 6 5 2 1 1 0 0 0 0 0 0 0 0 0 0 0 0
11 11 11 10 9 9 9 8 7 6 6 7 7 7 6 6 5 4 4 3 4 4 3 3 4 4 5 4 2 1 1 0 0 0 0 0 0 0 0 0 0 0 0
10 11 11 11 10 10 9 7 6 6 6 7 7 7 6 7 7 6 4 3 4 5 5 5 4 5 6 5 2 1 0 0 0 0 0 0 0 0 0 0 0 0 0
10 10 11 11 11 10 9 7 6 6 6 6 6 6 6 6 6 5 4 3 4 6 6 5 4 5 5 4 2 1 0 0 0 0 0 0 0 0 0 0 0 0 0
10 10 10 10 9 8 7 6 6 6 5 4 4 4 4 4 3 3 3 4 5 6 5 3 2 3 4 3 2 1 0 0 0 0 0 0 0 0 0 0 0 0 0
10 10 10 9 8 7 6 6 6 5 4 3 3 2 2 1 1 1 2 4 4 4 3 1 1 2 3 3 2 0 0 0 0 0 0 0 0 0 0 0 0 0 0
10 10 10 9 8 6 5 4 4 4 4 3 2 1 0 0 0 1 1 1 2 2 2 1 1 2 3 3 2 1 0 0 0 0 0 0 0 0 0 0 0 0 0
11 10 9 9 7 4 2 1 2 3 4 3 1 1 1 2 2 2 1 0 0 1 1 0 1 2 2 2 1 1 0 0 0 0 0 0 0 0 0 0 0 0 0
11 10 9 7 5 2 0 0 1 3 3 2 1 2 3 3 3 3 2 1 0 0 0 0 0 1 1 0 0 0 0 0 0 0 0 0 0 0 0 0 0 0 0
10 9 8 6 4 1 0 0 1 2 2 1 0 1 2 2 2 1 1 1 0 0 0 0 0 0 0 0 0 0 0 0 0 0 0 0 0 0 0 0 0 0 0
9 7 6 5 3 1 0 0 1 2 1 0 0 0 0 1 0 0 0 1 0 0 0 0 0 0 0 0 0 0 0 0 0 0 0 0 0 0 0 0 0 0 0

GEFSMA_con_probscp_216.txt.gz
Probability
13 11 8 6 6 4 2 1 0 0 0 0 0 0 0 0 0 0 0 1 2 3 3 2 1 0 0 0 0 1 3 5 5 6 6 5 5 6 7 5 2 2 2
13 10 7 5 4 3 2 1 1 0 0 0 0 0 0 0 0 0 0 0 1 3 3 3 1 0 0 0 0 1 3 4 5 6 7 6 5 6 7 6 3 3 3
11 10 7 5 4 3 3 2 1 0 0 0 0 0 0 0 0 0 0 0 1 2 3 3 2 1 0 0 0 0 1 3 4 5 6 6 6 7 7 7 6 5 4
10 9 8 7 6 4 3 3 2 1 0 0 0 0 0 0 0 0 0 0 0 1 2 3 2 1 0 0 0 0 1 2 3 4 5 5 5 6 6 6 7 6 6
9 9 9 8 6 4 3 3 2 1 0 0 0 0 0 0 0 0 0 0 0 0 0 1 1 1 1 1 1 1 0 1 2 3 3 4 5 5 5 5 5 6 6
8 8 7 7 5 4 3 3 2 0 0 0 0 0 0 0 0 0 0 0 0 0 0 0 0 0 1 3 3 2 1 1 1 1 2 3 4 5 4 4 5 6 6
7 7 6 6 4 3 3 3 2 1 0 0 0 0 0 0 0 0 0 0 0 0 0 0 0 0 1 3 4 4 3 2 2 1 1 2 3 3 3 4 5 5 5
8 7 7 6 4 3 3 2 2 1 1 0 0 0 0 0 0 0 0 0 0 0 0 0 0 0 0 1 2 3 3 4 4 4 2 1 2 2 2 3 4 4 3
13 11 10 8 5 3 2 1 1 2 1 0 0 0 0 0 0 0 0 0 0 0 0 0 0 0 0 0 0 1 2 4 5 5 3 1 1 1 1 1 2 2 2
17 15 12 9 6 4 2 0 1 2 1 0 0 0 0 0 0 0 0 0 0 0 0 0 0 0 0 0 0 0 1 2 3 4 3 3 2 1 0 1 1 1 1
18 18 14 9 5 3 1 0 1 1 1 0 0 0 0 0 0 0 0 0 0 0 0 0 0 0 0 0 0 0 0 1 1 2 3 4 2 1 0 1 0 0 0
19 18 14 9 5 3 1 1 2 1 0 0 0 0 0 0 0 0 0 0 0 0 0 0 0 0 0 0 0 0 0 0 0 1 1 2 1 0 0 0 0 0 0
17 17 14 9 6 4 3 3 2 1 0 0 0 0 0 0 0 0 0 0 0 0 0 0 0 0 0 0 0 0 0 0 0 0 0 0 0 0 0 0 0 0 0
11 11 10 8 7 6 5 4 3 2 1 0 0 0 0 0 0 0 0 0 0 0 0 0 0 0 0 0 0 0 0 0 0 0 0 0 0 0 0 0 0 0 0
6 5 6 7 7 6 6 4 3 3 2 1 0 0 0 0 0 0 0 0 0 0 0 0 0 0 0 0 0 0 0 0 0 0 0 0 0 0 0 0 0 0 0
3 4 5 7 8 7 5 4 3 3 3 2 1 1 0 0 0 0 0 0 0 0 0 0 0 0 0 0 0 0 0 0 0 0 0 0 0 0 0 0 0 0 0
3 4 7 8 9 7 5 4 3 3 3 3 3 2 1 1 0 0 0 0 0 0 0 0 0 0 0 0 0 0 0 0 0 0 0 0 0 0 0 0 0 0 0
3 4 7 9 9 8 6 4 3 3 3 3 3 3 3 2 1 0 0 0 0 0 0 0 0 0 0 0 0 0 0 0 0 0 0 0 0 0 0 0 0 0 0
3 4 7 8 9 8 7 4 3 3 3 2 2 2 2 2 1 0 0 0 0 0 0 0 0 0 0 0 0 0 0 0 0 0 0 0 0 0 0 0 0 0 0
3 4 6 7 8 7 6 4 3 2 1 1 1 1 1 1 0 0 0 0 0 0 0 0 0 0 0 0 0 0 0 0 0 0 0 0 0 0 0 0 0 0 0
4 4 6 7 6 6 5 4 2 1 0 0 0 0 0 0 0 0 0 0 0 0 0 0 0 0 0 0 0 0 0 0 0 0 0 0 0 0 0 0 0 0 0
4 5 6 6 5 4 4 3 2 1 0 0 0 0 0 0 0 0 0 0 0 0 0 0 0 0 0 0 0 0 0 0 0 0 0 0 0 0 0 0 0 0 0
4 4 4 4 3 3 3 1 1 1 0 0 0 0 0 0 0 0 0 0 0 0 0 0 0 0 0 0 0 0 0 0 0 0 0 0 0 0 0 0 0 0 0
3 3 3 3 3 3 1 0 0 1 1 0 0 0 0 0 0 0 0 0 0 0 0 0 0 0 0 0 0 0 0 0 0 0 0 0 0 0 0 0 0 0 0
3 3 3 3 3 2 1 0 1 2 2 1 0 0 0 0 0 0 0 0 0 0 0 0 0 0 0 0 0 0 0 0 0 0 0 0 0 0 0 0 0 0 0
3 3 3 3 3 2 1 0 1 2 2 1 0 0 0 0 0 0 0 0 0 0 0 0 0 0 0 0 0 0 0 0 0 0 0 0 0 0 0 0 0 0 0

GEFSMA_con_probscp_222.txt.gz
Probability
11 9 7 7 8 7 6 6 5 4 3 2 1 1 2 2 1 0 0 0 0 0 1 3 4 5 6 5 4 2 1 1 2 2 2 2 2 1 2 4 5 5 5
9 8 6 5 6 6 6 5 5 4 3 1 0 0 1 1 1 0 0 0 0 0 0 1 2 2 3 3 3 2 1 2 2 2 3 3 2 1 2 4 5 4 4
5 6 6 5 4 4 4 4 4 3 2 0 0 0 0 0 0 0 0 0 0 0 0 0 0 0 1 1 2 1 1 2 2 2 3 4 3 2 3 4 4 4 3
4 5 6 6 4 3 3 3 3 3 2 1 0 0 0 0 0 0 0 0 0 0 0 0 0 0 0 0 0 0 0 1 1 3 4 5 4 3 3 4 5 5 4
3 4 5 5 4 3 3 3 3 3 3 1 0 0 0 0 0 0 0 0 0 0 0 0 0 0 0 0 0 1 1 0 1 2 4 6 5 3 2 3 4 5 5
3 4 4 4 3 3 3 3 3 3 3 2 0 0 0 0 0 0 0 0 0 0 0 0 0 0 0 0 0 1 2 1 1 1 2 5 5 4 2 2 3 4 4
2 3 4 4 4 4 3 3 3 3 3 1 0 0 0 0 0 0 0 0 0 0 0 0 0 0 0 0 0 1 2 2 1 1 1 4 5 5 3 3 4 4 3
2 2 4 5 5 5 3 2 3 3 2 1 0 0 0 0 0 0 0 0 0 0 0 0 0 0 0 0 0 0 1 2 2 2 2 4 5 5 5 6 6 5 4
2 3 3 4 5 5 4 2 3 3 2 0 0 0 0 0 0 0 0 0 0 0 0 0 0 0 0 0 0 0 0 1 2 3 4 6 7 7 6 6 7 5 4
2 4 4 3 3 5 5 3 3 2 1 0 0 0 0 0 0 0 0 0 0 0 0 0 0 0 0 0 0 0 1 2 2 3 5 8 10 10 7 6 6 5 4
1 3 4 2 1 3 4 3 3 2 1 0 0 0 0 0 0 0 0 0 0 0 0 0 0 0 0 0 0 0 1 2 2 3 5 7 9 10 9 6 5 4 3
1 2 3 2 1 2 2 3 3 2 1 0 0 0 0 0 0 0 0 0 0 0 0 0 0 0 0 0 0 0 0 1 1 2 3 5 7 8 8 6 5 5 4
1 2 3 3 2 1 1 3 3 3 2 0 0 0 0 0 0 0 0 0 0 0 0 0 0 0 0 0 0 0 0 0 0 1 1 3 3 4 5 6 6 6 4
2 3 3 3 2 1 1 2 3 3 1 0 0 0 0 0 0 0 0 0 0 0 0 0 0 0 0 0 0 0 0 0 0 0 0 1 1 1 3 4 4 4 3
2 2 2 2 1 1 2 3 4 3 1 1 1 1 0 0 0 0 0 0 0 0 0 0 0 0 0 0 0 0 0 0 0 0 0 0 0 0 1 2 1 1 1
1 1 1 1 1 2 3 3 4 2 1 1 2 2 1 1 0 0 0 0 0 0 0 0 0 0 0 0 0 0 0 0 0 0 0 0 0 0 0 0 0 0 0
0 1 2 2 3 4 3 3 3 1 0 1 3 3 3 2 1 1 0 0 0 0 0 0 0 0 0 0 0 0 0 0 0 0 0 0 0 0 0 0 0 0 0
1 1 2 3 4 5 4 3 1 1 1 1 2 3 3 3 3 2 1 1 0 0 0 0 0 0 0 0 0 0 0 0 0 0 0 0 0 0 0 0 0 0 0
0 1 1 2 3 4 4 3 2 2 2 2 3 3 3 3 3 3 3 2 1 0 0 0 0 0 0 0 0 0 0 0 0 0 0 0 0 0 0 0 0 0 0
0 0 0 1 1 2 3 3 2 2 3 3 3 3 3 3 3 3 3 2 1 0 0 0 0 0 0 0 0 0 0 0 0 0 0 0 0 0 0 0 0 0 0
0 0 0 0 1 2 3 3 3 3 3 3 3 3 3 2 2 2 2 2 1 0 0 0 0 0 0 0 0 0 0 0 0 1 1 1 0 0 0 0 0 0 0
0 0 0 0 1 2 2 2 2 3 3 3 3 2 1 1 1 1 1 1 0 0 0 0 0 0 0 0 0 0 0 0 0 1 1 1 0 0 0 0 0 0 0
0 0 0 0 1 1 1 0 1 3 3 3 4 3 1 0 0 0 0 0 0 0 0 0 0 0 0 0 0 0 0 0 0 0 1 1 0 0 0 0 0 0 0
0 0 0 0 0 1 0 0 1 2 3 3 3 3 1 0 0 0 0 0 0 0 0 0 0 0 0 0 0 0 0 0 0 0 0 0 0 0 0 0 0 0 0
0 0 0 0 1 1 1 0 1 2 3 3 3 1 1 0 0 0 0 0 0 0 0 0 0 0 0 0 0 0 0 0 0 0 0 0 0 0 0 0 0 0 0
0 0 0 0 1 2 1 0 1 2 3 3 2 1 0 0 0 0 0 0 0 0 0 0 0 0 0 0 0 0 0 0 0 0 0 0 0 0 0 0 0 0 0

GEFSMA_con_probscp_228.txt.gz
Probability
22 21 22 21 16 12 12 12 12 10 7 5 5 3 2 2 1 0 1 1 2 2 2 1 1 2 3 3 3 3 4 4 4 7 10 11 10 10 9 9 10 10 11
23 23 23 22 18 14 12 12 11 9 7 7 7 5 4 3 2 0 0 1 2 2 1 1 1 1 2 4 3 3 5 6 5 7 10 13 13 12 10 10 11 10 10
21 22 23 21 18 14 12 11 10 9 9 9 9 8 7 5 3 1 1 1 2 2 1 1 1 1 2 4 4 4 6 7 6 6 7 11 13 13 11 10 11 11 9
19 20 20 19 16 13 11 9 9 9 10 11 11 10 9 8 6 3 2 2 2 1 1 1 1 1 2 3 4 5 6 7 6 5 5 7 10 11 9 7 8 8 7
18 18 17 17 16 12 9 9 9 10 12 12 11 9 9 9 7 5 3 3 2 1 1 2 2 2 2 3 3 4 5 6 7 6 5 4 5 7 6 4 4 4 3
17 17 16 17 16 13 11 10 11 11 11 11 9 7 6 6 6 5 4 3 1 0 0 1 1 2 2 2 2 2 3 5 6 7 5 4 4 5 5 4 4 2 1
18 18 17 18 16 14 13 12 12 11 10 9 7 5 5 5 5 5 5 3 1 1 1 1 2 2 2 2 1 1 1 3 6 7 6 6 5 5 7 7 5 3 2
20 18 18 18 16 15 14 13 12 11 9 8 7 6 5 4 4 5 5 4 2 4 4 3 2 3 3 3 2 1 1 2 4 5 6 6 5 6 8 8 6 4 3
19 19 18 18 16 15 14 13 13 12 10 9 8 7 5 3 3 4 4 3 3 5 5 3 2 2 3 4 3 2 1 2 2 3 4 4 5 6 7 8 7 4 3
18 18 18 17 15 13 12 12 12 12 10 9 8 7 5 4 3 3 3 3 3 4 3 2 0 0 1 2 2 1 2 2 2 2 2 3 5 6 7 8 7 5 4
16 15 15 15 14 12 11 11 13 13 11 9 8 7 6 6 3 1 1 1 2 2 2 1 0 0 0 0 0 0 1 1 1 1 1 1 3 6 8 9 8 6 5
13 12 12 13 13 12 11 12 14 13 12 10 9 8 7 5 2 0 0 0 1 1 1 0 0 0 0 0 0 0 0 0 0 0 0 0 2 5 7 8 8 8 7
12 12 10 10 12 11 11 12 13 14 14 13 11 10 9 6 3 2 1 1 0 0 1 0 0 0 0 0 0 0 0 0 0 0 0 0 0 2 4 6 7 9 9
10 9 8 9 10 11 10 10 11 12 14 13 11 11 10 8 7 6 5 5 3 1 1 1 1 1 1 1 1 0 0 0 0 0 0 0 0 1 2 4 5 6 7
6 6 6 7 9 10 9 9 10 12 13 12 10 10 10 9 9 10 9 9 6 3 2 2 3 3 4 3 1 0 0 0 0 0 0 0 0 0 1 2 3 2 2
5 6 6 7 7 7 7 8 9 10 10 10 10 10 10 10 11 11 11 10 8 4 2 2 4 6 6 5 3 2 3 2 0 0 0 0 0 0 0 1 1 0 0
5 6 7 7 6 5 6 7 8 8 8 8 8 9 8 8 9 10 9 9 9 8 5 4 6 8 8 7 6 6 6 4 1 0 0 0 0 0 0 0 0 0 0
4 5 6 6 6 5 6 7 7 6 6 6 5 4 4 5 7 8 7 8 10 12 10 8 9 9 10 10 9 8 8 6 4 1 0 0 0 0 0 0 0 0 0
3 4 4 4 5 5 5 6 5 4 4 3 2 2 1 3 5 6 5 6 8 10 11 10 9 9 10 10 9 8 8 9 6 2 1 0 0 0 0 0 0 0 0
2 2 1 2 2 3 3 4 4 3 3 3 2 1 2 2 3 3 2 3 5 6 7 7 6 8 9 8 8 8 8 9 8 5 3 2 1 1 0 0 0 0 0
1 0 0 0 0 1 2 3 3 3 3 3 2 2 1 1 1 1 1 2 3 4 5 4 4 6 7 7 7 7 6 6 7 6 5 4 4 4 4 2 1 0 0
0 0 0 0 0 0 1 2 3 3 3 3 3 2 0 0 0 0 0 1 2 3 3 3 3 4 4 4 5 5 4 4 4 3 4 4 5 7 8 6 2 0 0
0 0 0 0 0 0 0 1 1 3 4 3 3 1 1 1 2 2 2 2 2 2 2 3 3 3 3 3 4 4 3 2 1 1 1 1 3 5 8 6 2 0 0
1 1 1 0 0 0 0 0 1 3 4 4 3 2 3 4 4 4 4 4 4 3 1 2 2 2 2 2 2 2 2 1 0 0 0 0 0 2 3 4 2 0 0
2 2 1 0 0 1 1 0 1 2 3 3 2 2 3 4 4 3 4 6 6 5 2 1 1 1 1 1 1 1 1 0 0 0 1 0 0 0 2 4 3 1 0
3 1 0 0 1 2 2 1 0 1 1 1 2 2 2 3 3 3 5 6 6 5 3 1 0 0 0 0 0 0 0 0 0 0 1 0 0 0 2 4 4 2 1

GEFSMA_con_probscp_234.txt.gz
Probability
23 23 24 23 20 17 15 16 16 13 11 10 7 5 4 5 6 7 9 11 13 12 9 6 4 4 6 7 8 7 7 7 8 8 7 7 6 5 4 4 6 7 7
24 24 25 25 22 20 19 18 18 15 13 11 10 9 7 7 7 7 7 9 12 13 11 8 5 5 6 7 8 7 7 7 8 8 8 6 6 5 4 4 5 5 5
26 25 26 27 25 24 24 22 19 17 14 12 12 11 9 9 8 7 6 7 9 10 10 9 8 7 7 7 7 7 7 7 7 8 8 8 7 5 4 4 5 4 4
25 25 26 26 24 23 24 21 18 16 14 12 11 10 9 8 8 7 7 7 7 6 6 7 10 12 11 8 7 7 7 6 7 7 8 9 8 6 4 3 4 4 3
24 23 23 23 22 20 19 18 16 17 17 14 11 9 8 8 7 6 6 7 6 5 5 6 9 14 15 12 10 8 7 7 7 7 8 9 9 8 6 3 3 3 2
23 22 21 21 21 18 16 15 16 17 18 16 11 8 8 8 9 8 7 7 7 6 5 5 8 12 16 17 14 9 7 7 9 9 9 10 10 9 6 3 1 1 1
22 21 20 20 20 18 15 14 15 16 16 15 11 8 7 7 9 9 9 9 7 5 4 5 7 10 13 15 13 9 8 8 9 10 11 11 11 9 6 3 2 1 1
23 20 18 18 18 17 15 14 14 14 13 12 10 7 6 6 7 8 10 10 7 5 4 4 5 8 9 9 8 7 7 7 8 9 10 11 11 9 6 4 3 3 2
25 22 18 16 16 16 14 14 14 13 11 10 9 8 8 7 6 6 7 7 6 5 4 4 4 5 6 6 4 4 4 5 6 7 8 9 9 9 8 6 5 4 4
24 22 19 17 15 14 12 13 13 12 11 10 9 9 9 9 7 5 4 4 4 4 4 3 3 3 5 7 6 3 2 3 5 6 7 6 7 9 10 9 8 6 5
20 19 17 17 14 12 12 11 11 11 11 10 9 9 9 8 8 6 3 2 2 3 3 3 3 3 4 6 7 4 1 1 2 3 4 3 4 7 9 10 9 7 6
14 14 14 15 15 14 13 11 9 10 10 10 9 8 6 6 6 5 3 3 3 4 4 4 5 6 4 4 4 3 1 0 0 1 1 1 1 3 5 7 7 7 7
10 10 11 12 14 14 12 11 10 10 10 10 9 7 5 4 4 4 3 4 5 5 5 5 7 7 4 2 1 1 1 0 0 0 0 0 0 0 1 2 4 5 5
8 8 7 8 9 9 8 10 11 11 11 11 8 6 5 5 4 4 4 4 5 5 5 6 8 7 5 2 1 2 3 1 0 0 0 0 0 0 0 0 1 1 2
7 6 5 4 4 4 5 8 10 10 11 10 8 8 8 7 6 5 4 5 5 4 4 5 6 6 5 3 1 3 4 2 0 0 0 0 0 0 0 0 0 0 0
6 4 3 2 2 1 2 5 6 7 8 8 7 8 8 7 6 5 4 5 5 3 2 2 2 3 4 2 2 3 5 3 1 0 0 0 0 0 0 0 0 0 0
5 3 2 2 2 1 1 2 3 4 6 5 4 4 4 4 5 4 3 3 3 3 1 1 0 1 3 3 3 5 5 4 1 0 0 0 0 0 0 0 0 0 0
4 2 2 3 2 1 0 1 2 3 4 5 3 2 2 2 3 3 2 2 3 2 1 0 0 1 4 5 5 5 5 3 1 0 0 0 0 0 0 0 0 0 0
3 2 3 3 1 0 0 1 1 1 3 4 3 2 2 3 2 2 2 2 3 2 1 1 1 2 3 5 5 4 3 2 1 0 0 0 0 0 0 0 0 0 0
3 3 3 3 1 0 0 0 0 1 2 3 4 3 3 2 2 2 2 2 2 1 1 2 2 3 3 3 4 3 2 1 1 0 0 0 0 0 0 0 0 0 0
3 3 3 3 2 1 0 0 0 1 2 3 4 4 2 1 1 2 1 1 1 1 2 3 3 3 3 2 2 2 1 0 0 0 0 0 0 0 1 1 0 0 0
3 3 3 3 3 2 1 0 0 1 2 3 4 3 1 0 0 0 0 0 0 1 2 3 3 3 3 2 1 1 0 0 0 1 0 0 1 1 2 2 1 0 0
4 4 4 4 4 3 1 0 0 1 2 2 2 1 1 1 1 0 0 0 0 1 1 2 3 3 3 2 1 0 0 0 0 0 0 0 1 2 2 2 1 0 0
6 6 6 6 5 3 1 0 0 0 1 1 1 0 2 4 3 1 0 1 1 1 0 1 1 2 3 2 1 1 1 1 0 0 0 0 0 1 1 1 0 0 0
7 7 6 6 6 4 1 0 0 0 0 0 1 1 2 3 3 1 1 2 2 2 1 1 0 1 2 1 1 1 2 2 1 0 0 0 0 0 0 0 0 0 0
5 5 5 6 7 5 2 0 0 0 0 1 2 2 1 1 1 1 2 3 3 3 2 2 1 0 1 0 0 1 3 2 1 0 0 0 0 0 0 0 0 0 0

GEFSMA_con_probscp_240.txt.gz
Probability
6 6 6 5 4 5 6 6 4 2 2 3 3 3 3 3 2 1 1 3 8 11 11 8 6 5 5 5 5 5 4 4 3 4 6 7 7 7 7 8 10 11 11
4 4 4 5 5 5 6 6 4 2 2 2 3 3 3 3 3 3 3 3 7 10 11 8 6 6 6 6 6 6 6 4 4 5 5 6 6 6 6 7 9 10 10
3 3 3 4 4 5 5 6 5 3 2 1 2 3 3 4 5 5 4 3 4 6 8 8 7 6 6 6 6 6 6 5 5 5 5 5 5 4 4 5 6 7 7
4 4 3 2 2 4 5 5 4 3 3 2 1 2 3 3 4 4 3 2 2 3 4 6 6 6 6 5 5 4 4 4 4 5 6 5 4 3 2 2 2 2 3
5 5 3 1 0 2 3 4 3 3 3 3 1 1 2 3 3 3 2 1 1 2 3 4 6 7 6 5 4 4 4 4 4 5 5 4 4 2 1 0 0 0 1
6 5 4 2 1 1 2 3 3 3 3 3 2 1 1 3 3 3 3 2 1 2 2 3 4 5 5 5 6 6 7 6 5 5 4 3 3 2 1 1 0 0 0
6 6 5 4 3 2 2 1 2 3 4 2 1 0 1 2 3 3 3 3 3 2 2 2 2 2 2 3 6 9 9 8 7 6 5 4 3 2 1 1 1 0 0
7 7 6 5 4 3 1 1 3 5 4 2 0 0 0 1 2 3 3 3 3 2 1 1 1 0 0 1 4 8 10 10 9 7 6 5 5 3 1 1 2 1 0
7 7 7 5 4 3 2 1 3 6 5 3 1 0 0 0 1 1 2 3 3 3 1 0 0 0 0 0 2 5 8 9 9 8 6 5 5 3 2 2 2 1 0
8 7 6 4 3 3 3 2 3 5 5 4 2 1 1 0 0 0 1 1 2 3 2 1 0 0 0 0 0 2 4 5 7 8 7 5 4 3 3 2 1 0 1
7 6 5 3 3 3 3 2 2 4 6 5 4 3 2 1 0 0 0 1 1 2 1 1 0 0 0 0 0 0 1 2 4 6 7 6 4 4 4 4 2 1 2
4 4 3 2 2 2 2 1 2 3 5 6 4 3 3 1 0 0 0 0 0 0 1 1 0 0 0 0 0 0 0 0 1 2 3 3 3 5 7 7 5 4 4
2 2 1 1 1 1 1 1 1 2 4 5 4 3 2 1 0 0 0 0 0 0 0 1 0 0 0 0 0 0 0 0 0 0 0 1 2 4 7 7 7 5 4
1 1 0 0 0 0 0 0 0 1 3 3 2 1 1 1 0 0 0 0 0 0 0 0 0 0 0 0 0 0 0 0 0 0 0 0 0 2 4 5 5 3 2
0 0 0 0 0 0 0 0 0 1 1 1 0 0 0 0 0 0 0 0 0 0 0 0 0 0 0 0 0 0 0 0 0 0 0 0 0 0 1 1 1 1 0
0 0 0 0 0 0 0 0 0 0 0 0 0 0 0 0 0 0 0 0 0 0 0 0 0 0 0 0 0 0 0 0 0 0 0 0 0 0 0 0 0 0 0
0 0 0 0 0 0 0 0 0 0 0 0 0 0 0 0 0 0 0 0 0 0 0 0 0 0 0 0 0 0 0 0 0 0 0 0 0 0 0 0 0 0 0
0 0 0 0 0 0 0 0 0 0 0 0 0 0 0 0 0 0 0 0 0 0 0 0 0 0 0 0 0 0 0 0 0 0 0 0 0 0 0 0 0 0 0
0 0 0 0 0 0 0 0 0 0 0 0 0 0 0 0 0 0 0 0 0 0 0 0 0 0 0 0 0 0 0 0 0 0 0 0 0 0 0 0 0 0 0
0 0 0 0 0 0 0 0 0 0 0 0 0 0 0 0 0 0 0 0 0 0 0 0 0 0 0 0 0 0 0 0 0 0 0 0 0 0 0 0 0 0 0
0 0 0 0 0 0 0 0 0 0 0 0 0 0 0 0 0 0 0 0 0 0 0 0 0 0 0 0 0 0 0 0 0 0 0 0 0 0 0 0 0 0 0
0 0 0 0 0 0 0 0 0 0 0 0 0 0 0 0 0 0 0 0 0 0 0 0 0 0 0 0 0 0 0 0 0 0 0 0 0 0 0 0 0 0 0
0 0 0 0 0 0 0 0 0 0 0 0 0 0 0 0 0 0 0 0 0 0 0 0 0 0 0 0 0 0 0 0 0 0 0 0 0 0 0 0 0 0 0
0 0 0 0 0 0 0 0 0 0 0 0 0 0 0 0 0 0 0 0 0 0 0 0 0 0 0 0 0 0 0 0 0 0 0 0 0 0 0 0 0 0 0
0 0 0 0 0 0 0 0 0 0 0 0 0 0 0 0 0 0 0 0 0 0 0 0 0 0 0 0 0 0 0 0 0 0 0 0 0 0 0 0 0 0 0
0 0 0 0 0 0 0 0 0 0 0 0 0 0 0 0 0 0 1 1 1 0 0 0 0 0 0 0 0 0 0 0 0 0 0 0 0 0 0 0 0 0 0

GEFSMA_con_probscp_246.txt.gz
Probability
0 0 1 2 3 3 3 5 6 6 4 1 1 2 2 1 0 0 0 1 2 2 3 5 3 2 2 4 5 6 6 5 5 5 6 5 5 5 5 5 4 4 5
0 0 1 1 3 3 3 3 4 5 4 2 2 1 2 2 1 1 1 0 1 1 2 3 2 1 2 3 4 5 6 6 6 5 5 5 5 6 7 7 5 5 6
0 1 1 1 2 2 2 2 3 3 3 3 3 2 1 2 2 2 2 1 0 0 0 1 2 2 1 2 3 4 5 6 6 4 3 3 4 6 8 8 7 7 7
0 1 1 1 1 1 1 2 2 3 3 3 4 3 1 1 2 3 3 2 1 0 0 1 3 3 2 1 1 3 3 4 4 4 3 3 3 4 6 7 8 7 7
0 0 0 0 0 1 2 3 2 2 2 3 3 3 1 1 2 3 3 3 2 1 1 1 3 5 4 2 1 1 1 2 3 3 3 3 3 2 3 4 6 6 6
0 0 0 0 1 2 3 3 2 1 1 2 3 2 1 0 1 2 3 3 3 3 2 2 5 6 4 3 2 1 1 2 2 3 4 5 6 5 4 3 3 4 4
0 0 0 1 2 3 3 3 2 1 1 1 2 2 1 0 0 1 3 3 3 3 3 3 5 5 3 2 2 1 1 0 0 2 4 7 9 9 7 5 4 3 2
0 1 1 2 3 3 2 3 3 2 1 1 1 1 0 0 0 1 2 3 3 3 3 4 4 4 3 2 1 1 1 1 1 2 4 7 8 9 9 8 6 4 2
2 3 4 4 4 3 2 3 2 2 1 0 0 0 0 0 0 1 2 3 3 3 3 4 4 4 3 2 1 1 2 3 3 3 4 5 5 5 6 7 7 4 2
3 4 5 5 4 3 2 2 1 1 0 0 0 0 0 0 0 1 2 3 3 3 2 3 3 4 3 2 1 1 2 3 4 5 6 6 5 4 3 4 4 3 2
2 3 3 2 1 1 1 1 0 0 0 0 0 0 0 0 0 0 1 3 3 3 2 2 3 4 3 1 0 0 1 2 3 4 5 6 6 5 3 2 1 1 2
0 1 1 0 0 0 0 0 0 0 0 0 0 0 0 0 0 0 1 2 3 3 2 1 2 2 1 0 0 0 0 1 1 2 4 5 6 6 5 4 2 1 2
0 0 0 0 0 0 0 0 0 0 0 0 0 0 1 0 0 0 1 2 3 3 2 1 1 1 0 0 0 0 0 0 0 1 1 3 5 5 6 6 5 4 3
0 0 0 0 0 0 0 0 0 0 0 0 0 0 0 0 0 0 1 2 3 3 2 1 0 0 0 0 0 0 0 0 0 0 0 1 2 3 3 5 6 6 4
0 0 0 0 0 0 0 0 0 0 0 0 0 0 0 0 0 0 0 1 2 3 2 1 1 0 0 0 0 0 0 0 0 0 0 0 0 1 1 2 4 3 2
0 0 0 0 0 0 0 0 0 0 0 0 0 0 0 0 0 0 0 0 1 1 2 2 2 1 0 0 0 0 0 0 0 0 0 0 0 0 0 1 1 1 0
0 0 0 0 0 0 0 0 0 0 0 0 0 0 0 0 0 0 0 0 0 0 1 1 1 1 0 0 0 0 0 0 0 0 0 0 0 0 0 0 0 0 0
0 0 0 0 0 0 0 0 0 0 0 0 0 0 0 0 0 0 0 0 0 0 0 0 0 0 0 0 0 0 0 0 0 0 0 0 0 0 0 0 0 0 0
0 0 0 0 0 0 0 0 0 0 0 0 0 0 0 0 0 0 0 0 0 0 0 0 0 0 0 0 0 0 0 0 0 0 0 0 0 0 0 0 0 0 0
0 0 0 0 0 0 0 0 0 0 0 0 0 0 0 0 0 0 0 0 0 0 0 0 0 0 0 0 0 0 0 0 0 0 0 0 0 0 0 0 0 0 0
0 0 0 0 0 0 0 0 0 0 0 0 0 0 0 0 0 0 0 0 0 0 0 0 0 0 0 0 0 0 0 0 0 0 0 0 0 0 0 0 0 0 0
0 0 0 0 0 0 0 0 0 0 0 0 0 0 0 0 0 0 0 0 0 0 0 0 0 0 0 0 0 0 0 0 1 1 1 1 0 0 0 0 0 0 0
0 0 0 0 0 0 0 0 0 0 0 0 0 0 0 0 0 0 0 0 0 0 0 0 0 0 0 0 0 0 0 0 0 1 2 1 0 0 0 0 0 0 0
0 0 0 0 0 0 0 0 0 0 0 0 0 0 0 0 0 0 0 0 0 0 0 0 0 0 0 0 0 0 0 0 0 0 1 1 0 0 0 0 0 0 0
0 0 0 0 0 0 0 0 0 0 0 0 0 0 0 0 0 0 0 0 0 0 0 0 0 0 0 0 0 0 0 0 0 0 0 0 0 0 0 0 0 0 0
0 0 0 0 0 0 0 0 0 0 0 0 0 0 0 0 0 0 0 0 0 0 0 0 0 0 0 0 0 0 0 0 0 0 0 0 0 0 0 0 0 0 0

GEFSMA_con_probscp_252.txt.gz
Probability
13 13 14 13 10 7 6 6 7 8 8 7 5 3 2 2 2 2 2 1 1 0 0 0 1 2 3 2 1 0 1 2 4 4 3 3 3 4 6 7 6 6 5
12 12 13 11 9 8 7 7 8 9 9 7 5 3 3 3 2 1 1 1 1 1 1 1 2 5 6 5 3 2 3 4 4 4 3 3 3 4 6 7 7 6 5
9 10 10 9 8 7 7 8 10 11 9 7 5 4 4 4 3 2 1 1 2 2 2 2 4 6 8 8 7 6 6 6 5 4 3 2 3 4 5 7 7 5 3
5 6 7 7 7 7 7 9 11 12 11 9 6 5 6 7 5 4 4 4 3 4 4 4 6 7 7 7 7 7 7 6 5 4 3 2 2 3 4 6 6 4 4
1 2 3 5 6 8 8 9 10 11 11 9 6 5 7 8 7 7 7 8 7 5 4 5 6 8 8 7 6 5 4 4 4 3 2 2 2 2 2 3 5 5 5
1 2 3 4 5 6 7 8 9 9 8 6 5 6 7 8 8 9 9 10 10 7 6 6 6 7 8 8 7 4 2 2 3 3 2 2 2 1 0 1 2 3 4
3 4 6 6 5 6 7 8 8 7 6 5 5 6 7 7 7 8 9 10 10 9 7 7 6 6 7 9 8 4 2 2 3 3 3 2 2 2 1 1 1 1 2
4 4 6 7 7 7 8 7 6 6 6 6 6 6 5 6 6 7 8 10 10 9 8 7 6 5 7 8 6 4 3 3 3 3 3 3 3 3 3 3 2 1 1
4 5 7 8 8 8 8 7 5 5 6 6 6 5 4 5 6 7 7 9 10 10 8 5 4 5 7 7 6 4 4 4 4 4 5 6 5 4 4 4 4 3 1
6 8 9 10 10 10 9 7 6 5 5 5 5 4 4 5 6 6 6 7 9 10 8 5 4 5 6 8 8 6 4 4 4 5 6 8 6 4 4 5 6 5 4
10 9 10 11 11 11 10 8 8 7 5 5 4 4 3 4 5 5 4 5 7 8 8 5 4 4 6 8 9 6 4 3 3 4 6 7 6 5 5 6 7 7 6
12 9 8 9 10 9 8 7 7 7 6 4 4 4 3 2 3 3 3 4 5 6 7 6 4 4 6 8 8 4 2 2 2 2 3 4 5 6 7 7 8 8 8
11 8 6 8 8 6 4 3 3 5 5 4 4 4 3 2 2 3 4 4 4 5 6 6 5 4 5 6 6 3 1 1 0 1 1 3 4 5 6 6 7 9 9
6 6 6 6 5 2 1 1 1 2 3 3 4 3 3 3 3 3 4 4 3 4 5 6 5 4 3 4 5 3 2 1 0 0 1 2 3 3 4 4 5 6 7
5 5 6 5 2 0 0 0 0 1 2 3 3 3 3 3 3 3 4 2 1 2 4 5 5 4 3 3 3 3 2 1 0 0 0 1 1 2 2 3 3 3 3
5 5 4 3 1 0 0 0 0 0 1 1 2 2 2 2 2 4 5 3 2 2 3 4 4 4 4 3 3 4 3 1 0 0 0 0 0 1 1 1 1 1 1
2 3 2 1 0 0 0 0 0 0 0 0 1 1 1 1 2 4 6 6 4 5 5 4 4 5 6 5 4 4 3 2 1 0 0 0 0 0 0 0 0 0 0
0 1 1 0 0 0 0 0 0 0 0 0 0 0 0 1 2 3 5 7 7 8 7 6 5 5 6 6 5 4 2 1 1 0 0 0 0 0 0 0 0 0 0
0 0 0 0 0 0 0 0 0 0 0 0 0 0 0 0 1 3 4 7 8 9 9 8 6 6 6 5 4 3 2 2 1 0 0 0 0 0 0 0 0 0 0
0 0 0 0 0 0 0 0 0 0 0 0 0 0 0 0 1 1 3 6 8 9 10 8 6 5 5 3 2 1 2 2 1 0 0 0 0 0 0 0 0 0 0
0 0 0 0 0 0 0 0 0 0 0 0 0 0 0 0 0 0 2 5 7 8 8 7 4 3 3 2 1 0 1 2 2 2 1 1 1 1 1 0 0 0 0
0 0 0 0 0 0 0 0 0 0 0 0 0 0 0 0 0 0 1 2 4 5 5 4 2 2 2 2 2 1 1 2 4 5 4 4 4 4 3 1 0 0 0
1 1 1 0 0 0 0 0 0 0 0 0 0 0 1 1 1 2 2 2 2 3 4 4 2 2 3 3 3 3 2 3 4 5 5 5 5 4 2 1 0 0 0
3 3 2 1 0 0 0 0 0 0 0 0 1 2 2 3 3 3 3 3 3 2 3 3 3 3 3 4 4 2 2 3 4 4 4 4 4 3 2 1 1 0 0
3 3 3 1 0 0 0 0 0 0 0 1 3 3 3 3 2 1 2 3 3 3 2 1 2 2 3 3 2 1 1 2 3 3 3 3 3 3 3 2 1 0 0
2 2 2 1 0 0 0 0 0 0 0 1 2 3 2 2 1 0 1 2 3 2 1 0 0 1 1 1 0 0 0 1 3 3 3 3 3 3 3 3 2 1 0

GEFSMA_con_probscp_258.txt.gz
Probability
9 10 12 11 11 11 11 9 6 5 7 9 8 6 4 3 4 6 10 15 18 17 13 12 11 10 11 13 15 14 12 11 11 9 6 4 3 1 0 0 2 4 5
13 15 15 13 11 10 10 10 8 7 8 8 7 6 5 5 6 7 10 12 15 15 13 12 12 11 10 12 13 13 12 11 11 11 8 4 3 2 1 1 2 3 3
16 18 18 15 11 9 10 12 11 9 8 7 6 6 7 7 7 7 9 10 11 11 12 13 14 12 10 9 10 11 12 12 12 10 8 5 3 2 2 1 1 1 1
15 17 17 14 11 10 11 12 11 10 8 5 4 6 9 9 7 7 8 9 8 7 9 12 14 13 10 8 9 10 11 11 11 9 7 5 4 2 2 1 0 0 0
12 12 12 11 10 10 11 11 10 9 9 6 4 6 8 8 7 7 7 6 6 5 6 9 12 12 10 9 9 9 10 10 10 9 8 6 5 3 2 1 1 0 0
9 8 7 8 10 10 9 9 9 9 8 8 5 5 6 7 8 8 6 5 5 6 6 7 8 9 8 9 9 10 10 10 10 9 9 8 6 4 3 3 2 1 0
8 7 7 9 11 10 9 9 9 8 6 6 5 4 4 6 8 8 7 5 5 6 7 6 5 5 5 6 8 9 9 9 9 9 9 9 7 4 3 3 3 2 1
8 9 11 12 13 12 11 10 9 7 5 5 6 5 3 3 5 6 6 5 5 6 7 5 3 2 2 3 5 6 8 8 8 8 9 9 8 5 4 3 3 3 3
10 12 15 15 14 14 12 11 11 8 5 5 7 6 4 2 2 3 4 4 5 6 6 5 3 2 1 1 2 4 6 7 8 8 8 9 8 6 5 4 3 3 3
14 15 16 16 14 12 11 10 10 9 5 5 6 5 3 2 3 3 3 3 4 5 5 4 4 3 3 4 3 3 4 5 7 7 7 7 6 4 4 4 4 3 3
18 16 14 13 12 10 8 6 6 7 6 4 4 3 1 1 2 3 3 3 3 4 4 4 4 4 5 6 6 3 1 2 3 5 5 4 3 2 3 3 3 3 3
18 16 13 11 10 7 5 3 3 4 4 3 2 1 0 0 1 2 3 3 3 3 4 4 4 5 6 7 6 3 1 0 1 2 3 3 1 1 1 1 1 2 3
16 16 14 13 11 6 3 2 3 3 2 1 0 0 0 0 0 1 2 2 3 4 5 5 5 6 6 6 4 3 2 1 0 1 1 2 1 0 0 0 0 1 2
16 15 14 14 12 7 4 4 3 2 1 0 0 0 0 0 0 0 1 1 1 3 4 6 6 6 6 6 3 2 2 1 0 0 0 1 1 0 0 0 0 0 1
16 15 14 13 12 10 8 6 4 2 1 0 0 0 0 0 0 1 2 1 0 1 2 5 6 5 5 5 3 3 2 1 0 0 0 0 0 0 0 0 0 0 0
14 13 11 11 11 11 9 7 5 3 2 1 0 0 0 0 0 2 3 2 1 1 1 3 5 5 4 3 3 4 4 2 0 0 0 0 0 0 0 0 0 0 0
11 9 8 8 9 8 6 5 4 3 2 1 0 0 0 0 0 1 2 2 2 2 1 2 4 4 3 2 2 4 5 3 1 0 0 0 0 0 0 0 0 0 0
6 6 6 6 5 5 4 4 3 3 2 1 0 0 0 0 0 0 1 1 1 2 2 2 3 4 4 3 3 3 4 3 2 0 0 0 0 0 0 0 0 0 0
4 4 3 3 4 3 3 3 3 3 3 1 1 0 0 0 0 0 0 0 0 1 1 2 3 4 4 4 5 4 3 2 1 0 0 0 0 0 0 0 0 0 0
2 2 1 1 2 3 3 3 3 3 3 3 2 1 0 0 0 0 0 0 0 0 1 1 2 3 4 4 5 5 3 2 1 0 0 0 0 0 0 0 0 0 0
1 1 0 0 1 2 2 2 3 3 3 3 3 2 1 0 0 0 0 0 0 1 1 1 2 3 3 3 4 4 3 3 2 0 0 0 0 0 0 0 0 0 0
0 0 0 0 0 1 1 1 1 2 3 4 4 3 2 1 0 0 0 0 0 1 1 2 2 2 2 3 4 3 3 3 2 1 0 0 0 0 0 0 0 0 0
0 0 0 0 0 0 0 0 0 1 3 4 3 4 3 2 0 0 0 0 0 0 1 1 1 1 1 2 2 2 3 3 2 2 1 0 0 0 0 0 0 0 0
1 1 1 0 0 0 0 0 0 0 2 2 2 2 3 3 1 0 0 0 0 0 0 0 0 0 0 1 1 2 3 3 2 3 2 1 0 0 0 0 0 0 0
3 2 1 1 1 1 0 0 0 1 2 1 0 0 2 2 1 0 0 1 1 1 1 0 0 0 0 1 2 3 3 3 1 1 2 1 1 1 1 0 0 0 0
4 2 1 2 2 2 1 0 0 1 2 2 1 0 0 1 0 0 1 2 2 2 1 0 0 0 0 1 2 3 3 2 1 1 2 1 1 2 2 1 0 0 0

GEFSMA_con_probscp_264.txt.gz
Probability
1 1 2 2 1 0 0 0 0 0 0 1 2 3 1 0 0 0 2 5 9 11 11 8 5 6 8 9 8 9 10 11 11 11 8 4 4 4 2 1 0 1 1
3 1 1 1 1 0 0 0 0 0 0 1 2 2 1 0 0 0 1 3 7 9 10 8 6 6 7 7 7 8 10 11 12 12 10 7 6 4 3 1 1 1 2
3 1 0 0 0 0 0 0 0 0 0 0 1 1 1 0 0 0 0 1 3 6 8 8 8 8 7 6 6 7 9 10 12 12 12 10 8 6 4 2 1 1 1
3 2 1 0 0 0 0 0 0 0 0 0 0 0 0 0 0 0 0 0 1 3 6 7 7 8 7 6 5 6 7 8 9 11 11 10 9 7 4 2 1 0 0
2 2 1 0 0 0 0 0 0 0 0 0 0 0 0 0 0 0 0 0 0 1 3 4 4 4 5 5 4 4 6 6 7 9 9 8 8 6 3 2 1 0 0
1 1 0 0 0 0 0 0 0 0 0 0 0 0 0 0 0 0 0 0 0 0 1 1 2 3 3 4 5 4 3 5 6 7 7 6 5 3 1 1 0 0 0
1 0 0 0 0 0 0 0 0 0 0 0 0 0 0 0 0 0 0 0 0 0 0 0 1 2 3 4 6 5 4 4 5 6 5 4 4 2 1 0 0 0 0
1 0 0 0 0 0 0 1 1 1 0 0 0 0 0 0 0 0 0 0 0 1 1 0 0 1 1 2 4 5 4 3 3 4 4 4 4 3 2 1 1 0 0
0 0 0 0 0 0 0 1 1 1 0 0 0 0 0 0 0 0 0 0 0 1 1 0 0 0 0 1 1 2 1 1 2 2 3 4 5 4 3 2 1 1 0
0 0 0 0 0 0 0 0 0 0 0 0 0 0 0 0 0 0 0 0 0 1 1 0 0 0 0 0 0 0 0 0 1 1 1 2 4 4 3 2 1 1 1
0 0 0 0 0 0 0 0 0 0 0 0 0 0 0 0 0 0 0 0 0 0 0 0 0 0 0 0 0 0 0 0 0 0 0 1 2 3 3 2 1 1 1
1 1 1 0 0 0 0 0 0 0 0 0 0 0 0 0 0 0 0 0 0 0 0 0 0 0 0 0 0 0 0 0 0 0 0 0 1 2 3 2 1 0 0
3 3 3 2 1 0 0 0 0 0 0 0 0 0 0 0 0 0 0 0 0 0 0 0 0 0 0 0 0 0 0 0 0 0 0 0 0 1 1 1 1 0 0
3 4 5 4 3 1 0 0 0 0 0 0 0 0 0 0 0 0 0 0 0 0 0 0 1 1 0 0 0 0 0 0 0 0 0 0 0 0 0 0 0 0 0
2 2 3 5 3 1 0 0 0 0 0 0 0 0 0 0 0 0 0 0 0 0 0 0 1 2 1 0 0 0 0 0 0 0 0 0 0 0 0 0 0 0 0
1 1 2 3 2 0 0 0 0 0 0 0 0 0 0 0 0 0 0 0 0 0 0 0 1 2 2 1 0 0 0 0 0 0 0 0 0 0 0 0 0 0 0
0 0 1 2 1 0 0 0 0 0 0 0 0 0 0 0 0 0 0 0 0 0 0 0 1 2 2 1 0 0 0 0 0 0 0 0 0 0 0 0 0 0 0
0 0 1 1 0 0 0 0 0 0 0 0 0 0 0 0 0 0 0 0 0 0 0 0 0 1 2 1 0 0 0 0 0 0 0 0 0 0 0 0 0 0 0
0 0 0 0 0 0 0 0 0 0 0 0 0 0 0 0 0 0 0 0 0 0 0 0 0 1 1 0 0 0 0 0 0 0 0 0 0 0 0 0 0 0 0
0 0 0 0 0 0 0 0 0 0 0 0 0 0 0 0 0 0 0 0 0 0 0 0 0 0 0 0 0 0 0 0 0 0 0 0 0 0 0 0 0 0 0
0 0 0 0 0 0 0 0 0 0 0 0 0 0 0 0 0 0 0 0 0 0 0 0 0 0 0 0 0 0 0 0 0 0 0 0 0 0 0 0 0 0 0
0 0 0 0 0 0 0 0 0 0 0 0 0 0 0 0 0 0 0 0 0 0 0 0 0 0 0 0 0 0 0 0 0 0 0 0 0 0 0 0 0 0 0
0 0 0 0 0 0 0 0 0 0 0 0 0 0 0 0 0 0 0 0 0 0 0 0 0 0 0 0 0 0 0 0 0 0 0 0 0 0 0 0 0 0 0
0 0 0 0 0 0 0 0 0 0 0 0 0 0 0 0 0 0 0 0 0 0 0 0 0 0 0 0 0 0 0 0 0 0 0 0 0 0 0 0 0 0 0
0 0 0 0 0 0 0 0 0 0 0 0 0 0 0 0 0 0 0 0 0 0 0 0 0 0 0 0 0 0 0 0 0 0 0 0 0 0 0 0 0 0 0
0 0 0 0 0 0 0 0 0 0 0 0 0 0 0 0 0 0 0 0 0 0 0 0 0 0 0 0 0 0 0 0 0 0 0 0 0 0 0 0 0 0 0

GEFSMA_con_probscp_270.txt.gz
Probability
0 0 0 0 0 0 1 3 2 1 0 0 0 0 0 0 0 1 3 5 5 4 3 2 1 1 3 6 9 11 10 9 9 8 7 7 8 9 9 9 7 4 3
0 0 0 0 0 0 0 1 1 1 0 0 0 0 1 1 0 1 2 4 5 5 5 3 2 2 4 6 9 10 9 8 9 9 8 8 8 8 9 8 6 4 2
0 0 0 0 0 0 0 0 1 1 1 0 0 0 1 1 0 0 1 2 4 6 7 5 3 3 4 6 6 6 6 6 8 9 8 8 8 8 8 7 5 4 3
1 1 1 0 0 0 0 1 2 2 1 0 0 0 1 1 0 0 0 1 1 3 6 5 3 3 4 4 3 3 3 4 6 7 6 6 8 8 7 4 3 3 3
1 1 1 0 0 0 0 1 1 1 0 0 0 0 0 0 0 0 0 0 0 1 2 2 2 2 3 3 2 2 2 3 5 6 5 5 6 6 5 2 1 1 2
1 1 1 0 0 0 0 0 0 0 0 0 0 0 0 0 0 0 0 0 0 0 0 0 0 1 2 3 2 2 3 4 6 7 6 5 4 3 2 1 0 0 1
0 0 0 0 0 0 0 0 0 0 0 0 0 0 0 0 0 0 0 0 0 0 0 0 0 0 1 1 1 1 3 5 6 7 6 4 3 2 2 1 0 0 0
0 0 0 0 0 0 0 0 0 0 0 0 0 0 0 0 0 0 0 0 0 0 0 1 1 1 0 0 0 1 2 4 5 6 6 3 2 2 2 1 0 0 0
0 0 0 0 0 0 0 0 0 0 0 0 0 0 0 0 0 0 0 0 0 0 0 1 2 1 0 0 0 0 1 2 3 4 5 4 1 1 2 1 0 0 0
0 0 0 0 0 0 0 0 0 0 0 0 0 0 0 0 0 0 0 0 0 0 0 1 1 1 0 0 0 0 0 1 2 4 4 3 1 1 2 1 0 0 0
0 0 0 0 0 0 0 0 0 0 0 0 0 0 0 0 0 0 0 0 0 0 0 0 1 1 1 0 0 0 0 1 2 3 4 2 1 0 1 1 0 0 0
0 0 0 0 0 0 0 0 0 0 0 0 0 0 0 0 0 0 0 0 0 0 0 0 1 2 1 0 0 0 0 0 1 1 2 1 0 0 0 0 0 0 0
0 0 0 0 0 0 0 0 0 0 0 0 0 0 0 0 0 0 0 0 0 0 0 0 1 2 1 0 0 0 0 0 0 0 0 0 0 0 0 0 0 0 0
0 0 0 0 0 0 0 0 0 0 0 0 0 0 0 0 0 0 0 0 0 0 0 0 2 3 2 1 0 0 0 0 0 0 0 0 0 0 0 0 0 0 0
0 0 0 0 0 0 0 0 0 0 0 0 0 0 0 0 0 0 0 0 0 0 0 0 2 3 2 1 0 0 0 0 0 0 0 0 0 0 0 0 0 0 0
0 0 0 0 0 0 0 0 0 0 0 0 0 0 0 0 0 0 0 0 0 0 0 1 2 3 2 1 0 0 0 0 0 0 0 0 0 0 0 0 0 0 0
0 0 0 0 0 0 0 0 0 0 0 0 0 0 0 0 0 0 0 0 0 0 0 1 2 3 2 0 0 0 0 0 0 0 0 0 0 0 0 0 0 0 0
0 0 0 0 0 0 0 0 0 0 0 0 0 0 0 0 0 0 0 0 0 0 0 0 1 2 2 1 0 0 0 0 0 0 0 0 0 0 0 0 0 0 0
0 0 0 0 0 0 0 0 0 0 0 0 0 0 0 0 0 0 0 0 0 0 0 0 1 2 3 2 1 0 0 0 0 0 0 0 0 0 0 0 0 0 0
0 0 0 0 0 0 0 0 0 0 0 0 0 0 0 0 0 0 0 0 0 0 0 0 1 3 3 3 2 1 0 0 0 0 0 0 0 0 0 0 0 0 0
0 0 0 0 0 0 0 0 0 0 0 0 0 0 0 0 0 0 0 0 0 0 0 1 2 3 3 3 2 1 0 0 0 0 0 0 0 0 0 0 0 0 0
0 0 0 0 0 0 0 0 0 0 0 0 0 0 0 0 0 0 0 0 0 0 0 1 3 3 3 3 2 1 0 0 0 0 0 0 0 0 0 0 0 0 0
0 0 0 0 0 0 0 0 0 0 0 0 0 0 0 0 0 0 0 0 0 0 0 2 3 3 3 3 2 1 0 0 0 0 0 0 0 0 0 0 0 0 0
0 0 0 0 0 0 0 0 0 0 0 0 0 0 0 0 0 0 0 0 0 0 0 1 3 3 3 2 2 1 0 0 0 0 0 0 0 0 0 0 0 0 0
0 0 0 0 0 0 0 0 0 0 0 0 0 0 0 0 0 0 0 0 0 0 0 1 2 2 1 1 1 0 0 0 0 0 0 0 0 0 0 0 0 0 0
0 0 0 0 0 0 0 0 0 0 0 0 0 0 0 0 0 0 0 0 0 0 0 0 1 1 0 0 0 0 0 0 0 0 0 0 0 0 0 0 0 0 0